Regional Weather Roundup
Issued by NWS Grand Forks, ND

Home | Current Version | Previous Version | Graphics & Text | Print | Product List | Glossary On
Versions: 1 2 3 4 5 6 7 8 9 10 11 12 13 14 15 16 17 18 19 20 21 22 23 24 25 26 27 28 29 30 31 32 33 34 35 36 37 38 39 40 41 42 43 44 45 46 47 48 49 50
000
ASUS43 KFGF 052110
RWRFGF
PRAIRIE TO PINES  WEATHER ROUNDUP
NATIONAL WEATHER SERVICE EASTERN NORTH DAKOTA/GRAND FORKS ND
300 PM CST MON DEC 05 2016

 **SATELLITE DATA USED TO AUGMENT SKY COVER AT AUTOMATED STATIONS**
 *****  WEATHER ACROSS EASTERN NORTH DAKOTA  *****

CITY           SKY/WX    TMP DP  RH WIND       PRES   REMARKS
GRAND FORKS    CLOUDY    32  27  81 NE8       29.62S WCI  25
GRAND FRKS AFB CLOUDY    29  27  90 NE10      29.61S WCI  20
GRAND FRKS NWS   N/A     30 N/A N/A NE7         N/A  WCI  23
DEVILS LAKE    CLOUDY    26  26 100 E12       29.59F WCI  16
FARGO          CLOUDY    36  29  75 E12       29.53F
WAHPETON ARPT  CLOUDY    34  30  86 E14G21    29.49F WCI  24
$$

 ***** WEATHER ACROSS CENTRAL AND WESTERN NORTH DAKOTA  *****

CITY           SKY/WX    TMP DP  RH WIND       PRES   REMARKS
BISMARCK       SNOW      25  23  92 NW22G32   29.61R VSB 1/2 WCI  10
MINOT          CLOUDY    22  19  89 W20       29.59R WCI   7
JAMESTOWN      CLOUDY    29  27  92 NE10      29.50F WCI  20
MINOT AFB      CLOUDY    21  19  93 NW17      29.58S WCI   7
GARRISON         N/A     24  19  81 NW23G30   29.61R WCI   9
WILLISTON      SNOW      14  10  84 NW30G38   29.75R VSB 1/4 WCI  -7
DICKINSON      SNOW      17  13  84 NW25G36   29.67R VSB 1/2 WCI  -1
HETTINGER      CLOUDY    20  14  77 NW35G44   29.70R BLWGSNOWWCI   0
$$

 *****  OTHER AIRPORT OBSERVATIONS IN OUR AREA  *****

CITY           SKY/WX    TMP DP  RH WIND       PRES   REMARKS
WALHALLA         N/A     28  28 100 E7        29.67S WCI  21
GRAFTON AIRPOR CLOUDY    30  30 100 NE10      29.66F WCI  21
VALLEY CITY AR CLOUDY    28  28 100 NE13      29.54F WCI  18
CANDO          LGT SNOW  27  27 100 E9        29.62S WCI  17
CAVALIER APRT    N/A     28  27  93 E7        29.67R WCI  21
GWINNER        CLOUDY    34  32  93 E9        29.49S
SHEYENNE NWR     N/A     35  30  81 E9        29.95
ROLLA          SNOW      25  25 100 SE12      29.60R VSB 1/2 WCI  14
 ***** THE ABOVE OBSERVATIONS ARE NON NWS ARE NOT QUALITY
       CONTROLLED AND MAY MIS-REPORT RAIN FOR SNOW...
$$

  *****  WEATHER ACROSS NORTHERN MINNESOTA  *****

CITY           SKY/WX    TMP DP  RH WIND       PRES   REMARKS
FLAG ISLAND    CLOUDY    30  27  86 E7        29.71R WCI  23
WARROAD        CLOUDY    30  27  86 E12       29.69F WCI  21
ROSEAU         CLOUDY    30  27  86 E12       29.68S WCI  21
HALLOCK        CLOUDY    30  28  93 E12       29.65S WCI  21
THF RVR FALLS  CLOUDY    30  27  88 E15G24    29.61F WCI  19
BAUDETTE       CLOUDY    30  24  78 E10       29.69F WCI  21
WASKISH        CLOUDY    30  27  86 E14       29.66F WCI  20
CROOKSTON      CLOUDY    30  28  93 E14       29.61R WCI  20
$$
  *****  WEATHER ACROSS CENTRAL AND WEST MINNESOTA  *****

CITY           SKY/WX    TMP DP  RH WIND       PRES   REMARKS
FOSSTON        CLOUDY    30  27  86 E9        29.60R WCI  22
BEMIDJI        CLOUDY    30  27  90 E9        29.62F WCI  21
PARK RAPIDS    CLOUDY    33  25  72 E9        29.59R
ELBOW LAKE     CLOUDY    34  32  92 SE20G25   29.49F WCI  23
WADENA         LGT RAIN  30  28  93 E13       29.56F WCI  20
DETROIT LAKES  CLOUDY    32  28  86 SE15      29.56F WCI  22
MOORHEAD       MOSUNNY   36  28  75 E13G18    29.54F
FERGUS FALLS   CLOUDY    36  30  80 E17       29.53F
MORRIS MN      CLOUDY    37  34  87 SE18      29.49F
STAPLES        LGT SNOW  30  28  93 E6        29.59S WCI  24
$$
  *****  WEATHER ELSEWHERE ACROSS MINNESOTA  *****

CITY           SKY/WX    TMP DP  RH WIND       PRES   REMARKS
DULUTH         MOCLDY    32  29  88 E12       29.72R WCI  23
INTRNTL FALLS  CLOUDY    30  24  78 E9        29.73R WCI  22
ELY            CLOUDY    30  27  86 E7        29.75S WCI  23
CLOQUET        CLOUDY    34  28  80 E9G16     29.71S
WHEATON        PTSUNNY   36  34  93 E16       29.51R
BRAINERD       LGT SNOW  33  29  85 SE8G17    29.63S VSB 3/4
HIBBING        CLEAR     31  26  82 E8        29.70S WCI  23
ALEXANDRIA     CLOUDY    35  32  88 SE14      29.55R
SAINT CLOUD    CLOUDY    35  33  92 E12       29.60F
MINNEAPOLIS    CLOUDY    39  31  72 S18       29.67S
$$

  *****  WEATHER ACROSS SOUTH DAKOTA  *****

CITY           SKY/WX    TMP DP  RH WIND       PRES   REMARKS
SIOUX FALLS    CLOUDY    44  34  67 S17G24    29.51R
BROOKINGS      SUNNY     42  33  70 S16       29.46R
WATERTOWN      SUNNY     39  32  76 S12       29.43S
HURON          MOSUNNY   37  30  75 W20G29    29.50R
SISSETON         N/A     35  32  88 S12       29.48R
ABERDEEN       CLOUDY    38  30  73 N9        29.47R
MITCHELL       PTSUNNY   40  31  70 W22G29    29.53R
PIERRE         LGT SNOW  29  24  82 NW33G44   29.62R WCI  13
MOBRIDGE       HVY SNOW  27  23  85 NW30G39   29.56R VSB 1/4 WCI  11
RAPID CITY     FLURRIES  23  14  68 N35G48    29.71R WCI   4
$$

  *****  SOME WEATHER IN NEARBY STATES *****

CITY           SKY/WX    TMP DP  RH WIND       PRES   REMARKS
GLASGOW MT     CLOUDY     9   0  67 NW31G38   29.96R WCI -14
GREAT FALLS MT CLOUDY    12   4  70 NW5       30.04R HAZE    WCI   4
CHEYENNE WY    PTSUNNY   27  -7  22 NW24G38   29.72R WCI  12
SCOTTSBLUFF NE CLOUDY    32  15  49 NW28G36   29.76R WCI  18
OMAHA NE       PTSUNNY   52  36  54 S22G35    29.63F
DES MOINES IA  PTSUNNY   49  35  58 S18       29.76F
DAVENPORT IA   CLOUDY    35  32  88 S12       29.92S
CHICAGO IL     CLOUDY    32  30  92 S9        30.00S FOG     WCI  24
EAU CLAIRE WI  CLOUDY    36  33  89 SE10      29.79S
LA CROSSE WI   CLOUDY    39  33  79 S12       29.84S
$$

  *****  SOME NATIONAL WEATHER *****

CITY           SKY/WX    TMP DP  RH WIND       PRES   REMARKS
LA GUARDIA NY  PTCLDY    50  33  52 NW14      29.99R
RALEIGH NC     MOCLDY    56  40  55 NE7       30.01R
ATLANTA GA     LGT RAIN  52  51  97 E9        29.93F FOG
NEW ORLEANS LA CLOUDY    60  60 100 NE8       29.74S
OKLAHOMA CITY  MOSUNNY   51  41  68 S13       29.70F
ALBUQUERQUE NM MOSUNNY   51  16  24 S5        29.79F
SALT LAKE CITY MOSUNNY   33   7  33 N8        30.04F
LOS ANGELES CA PTSUNNY   64  49  57 SE3       29.93F
BOISE ID       SUNNY     33  16  49 CALM      30.10F
SEATTLE WA     CLOUDY    38  36  92 S9        30.03F
$$

*** WEATHER ACROSS MANITOBA...SASKATCHEWAN AND ONTARIO ***
                ***ONTARIO***

CITY           SKY/WX    TMP DP  RH WIND       PRES   REMARKS
GERALDTON      LGT SNOW  32  30  93 CALM      29.77R FOG
THUNDER BAY    CLOUDY    34  30  86 W6        29.81R
SIOUX LOOKOUT  MOCLDY    32  27  80 VRB3      29.75R
TORONTO        MOCLDY    41  28  60 W17       29.98R
BIG TROUT LK   FLURRIES  25  23  93 S3        29.79R
PICKLE LAKE    FLURRIES  28  25  86 VRB2      29.77R
DRYDEN         CLOUDY    32  27  80 N3        29.72S
KENORA         CLOUDY    28  25  86 E3        29.71F
$$
                *** MANITOBA***

CITY           SKY/WX    TMP DP  RH WIND       PRES   REMARKS
BRANDON        FRZ DRZL  25  25 100 E14       29.65R WCI  13
DAUPHIN        LGT SNOW  25  25 100 NE8       29.76R WCI  16
ISLAND LAKE    NOT AVBL
PILOT MOUND      N/A     25  25 100 E14         N/A  WCI  13
THE PAS        FLURRIES  23  19  86 W7        29.80R WCI  15
THOMPSON       FLURRIES  23  23 100 NE2       29.79R
WINNIPEG       CLOUDY    30  27  86 E9        29.71S WCI  22
LYNN LAKE      FLURRIES  25  25 100 N3        29.77R
CHURCHILL      FLURRIES  23  21  93 CALM      29.89R
GILLAM         FLURRIES  18  16  93 N3        29.84R
$$
                ***SASKATCHEWAN***

CITY           SKY/WX    TMP DP  RH WIND       PRES   REMARKS
ESTEVAN        HVY SNOW  19  18  93 NW29G36   29.67R VSB 1/8 WCI   1
KINDERSLEY     CLOUDY     3  -2  78 NW17G30   30.00R BLWGSNOWWCI -17
LLOYDMINSTER   PTSUNNY    3  -4  72 NW22G30   30.02R WCI -19
PRINCE ALBERT  CLOUDY    12   3  67 NW13G22   29.91R WCI  -3
REGINA         LGT SNOW  16  10  79 NW23G30   29.83R BLWGSNOWWCI  -2
YORKTON        CLOUDY    23  21  93 N15       29.75S WCI  10
N. BATTLEFORD  FLURRIES   7   0  72 NW18      30.01R WCI -12
LA RONGE       FLURRIES  10   5  79 W13       29.90R WCI  -5
SASKATOON      CLOUDY    10   1  67 NW17G24   29.96R WCI  -7
SWIFT CURRENT  CLOUDY     5   1  85 NW26G33   29.92R WCI -18
$$
NOTE: THESE ARE AUTOMATED STATIONS WITH LIMITED QUALITY CONTROL
      "FAIR" INDICATES FEW OR NO CLOUDS BELOW 12,000 FEET WITH NO
      SIGNIFICANT WEATHER AND/OR OBSTRUCTIONS TO VISIBILITY.
      SKY/WX - SKY CONDITION AND SIGNIFICANT WEATHER.
      TMP - AIR TEMPERATURE.    DP   - DEWPOINT TEMPERATURE.
      RH  - RELATIVE HUMIDITY.  PRES - PRESSURE.
      HX  - HEAT INDEX.         WCI  - WIND CHILL INDEX.
$




USA.gov is the U.S. government's official web portal to all federal, state and local government web resources and services.